Regional Weather Roundup
Issued by NWS New Orleans/Baton Rouge, LA

Home | Current Version | Previous Version | Text Only | Print | Product List | Glossary On
Versions: 1 2 3 4 5 6 7 8 9 10 11 12 13 14 15 16 17 18 19 20 21 22 23 24 25 26 27 28 29 30 31 32 33 34 35 36 37 38 39 40 41 42 43 44 45 46 47 48 49 50
075
ASUS44 KLIX 102211
RWRLIX
NEW ORLEANS REGIONAL WEATHER ROUNDUP
NATIONAL WEATHER SERVICE NEW ORLEANS LA
400 PM CST WED FEB 10 2016

NOTE: "FAIR" INDICATES FEW OR NO CLOUDS BELOW 12,000 FEET WITH NO
      SIGNIFICANT WEATHER AND/OR OBSTRUCTIONS TO VISIBILITY.
      SKY/WX - SKY CONDITION AND SIGNIFICANT WEATHER.
      TMP - AIR TEMPERATURE.     DP    - DEWPOINT TEMPERATURE.
      RH  - RELATIVE HUMIDITY.   PRES  - PRESSURE.
      HI  - HEAT INDEX.          WCI   - WIND CHILL INDEX.

*  THESE STATIONS ARE NOT NWS OR FAA STATIONS AND ARE NOT UNDER
   NWS QUALITY CONTROL.

LAZ038-040-048-061>063-065>067-069-102300-
SOUTHEAST LOUISIANA

CITY           SKY/WX    TMP DP  RH WIND       PRES   REMARKS
N.O. AUDUBON     N/A     58  32  38 MISG        N/A
N.O. INTL ARPT MOSUNNY   59  23  25 SW8       30.28F
N.O. LAKEFRONT SUNNY     53  28  38 W5        30.29F
N.O. DOWNTOWN*   N/A     61  23  23 MISG      30.30S
RESERVE*         N/A     60  23  23 SW3       30.27F
SLIDELL        SUNNY     55  27  34 VRB7      30.27F
BATON ROUGE    SUNNY     57  24  28 SW6       30.27F
BOOTHVILLE     SUNNY     54  29  38 SW10      30.31F
BELLE CHASSE   MOSUNNY   57  24  28 VRB7      30.29F
BOGALUSA*        N/A     60  22  23 W6        30.26S
GALLIANO*      CLEAR     58  30  34 SW10      30.30F
NEW ROADS*       N/A     57  28  32 SE5       30.27S
GONZALES*        N/A     59  28  30 CALM      30.27S
HAMMOND*       SUNNY     63  19  19 W6        30.25F
HOUMA*         SUNNY     57  27  30 SW5       30.29F
PORT FOURCHON* CLEAR     54  30  40 W9        30.32F

$$

MSZ070-080>082-102300-
SOUTHERN MISSISSIPPI

CITY           SKY/WX    TMP DP  RH WIND       PRES   REMARKS
MCCOMB         SUNNY     58  28  32 W7        30.22F
GULFPORT       SUNNY     54  29  38 SW9       30.26S
BILOXI         SUNNY     53  33  46 SW14      30.25F
PASCAGOULA     SUNNY     52  29  41 SW7       30.27R
STENNIS ARPT*  SUNNY     55  19  24 SW9       30.26F

$$

COASTAL OBSERVATIONS
LAKE AND NEARSHORE STATIONS

STATION/POSITION TIME  TEMP    WIND        PRES    WAVE
                       AIR SEA DIR/SP/G            HT/PER
                 (UTC) (F)     (DEG/KT/KT) (MB)    (FT/S)
PASCAGOULA       2100   50     260/ 12/ 18 1024.5
WAVELAND YACHT   2100   54 52  340/ 11/ 15 1024.5
GRAND ISLE       2100   53 55  250/  6/  8 1026.6
NEW CANAL        2100   53 51  300/  1/  3 1025.0
SHELL BEACH      2100   51 52  310/ 10/ 12 1025.3

OFFSHORE STATIONS

STATION/POSITION TIME  TEMP    WIND        PRES    WAVE
                       AIR SEA DIR/SP/G            HT/PER
                 (UTC) (F)     (DEG/KT/KT) (MB)    (FT/S)

$$





USA.gov is the U.S. government's official web portal to all federal, state and local government web resources and services.